Find Yaogan Weixing 11

NORAD ID: 37165 Int'l Des: 2010-047 Owner: ZZB Country: CN Constellation: yaogan operational
LEOCIRCULARRETROGRADE

現在のビュー

3D地球を読み込み中...

About Yaogan Weixing 11

Yaogan Weixing 11 (NORAD 37165) is a yaogan constellation satellite launched Sep 22, 2010 by ZZB of CN. It operates in LEO, CIRCULAR, RETROGRADE orbit with a mass of 800.00 kg.

Yaogan Weixing 11について

説明を読み込み中...

次回通過

Passes for default location (London). Set your location on the main map for personalized predictions.

高度履歴

Loading altitude history...

軌道要素

1 37165U 10047A 26195.18989914 .00000366 00000-0 53069-4 0 9998
2 37165 98.3821 62.5624 0035209 153.4831 206.8192 14.82116741852091
Epoch: Jul 14, 2026 • Age: 5 hours

現在のステータス

高度 666.2 km
遠地点 / 近地点 N/A
速度 7.51 km/s
衛星直下点 -59.52°S, 7.76°E
打ち上げ日 Sep 22, 2010
運用期間 15.8 years
タイプ military

技術仕様

分類 Payload
質量 800.00 kg
乾燥質量 800.00 kg
総質量 800.00 kg
長さ 2.00 m
直径 1.50 m
スパン 4.00 m
形状 Box + 2 Pan
製造者 DFHZ
バスタイプ CAST-2000
フェーズステータス In Orbit
所有者/国 ZZB/CN

Most Searched